Starlink 32658

operational
NORAD ID: 62999 Int'l Des: 2025-031 Owner: SPXS Country: US Constellation: starlink
LEOCIRCULAR

Starlink 32658について

説明を読み込み中...

リアルタイム位置

3D地球を読み込み中...

次回通過

高度履歴

Altitude vs Time

uPlot chart will show altitude changes over time

軌道要素

1 62999U 25031U 25258.49831342 .00034478 00000-0 12553-2 0 9996
2 62999 43.0046 52.5755 0003376 288.5412 71.5072 15.27611282 34309
Epoch: Sep 15, 2025 • Age: 10 hours

現在のステータス

高度 482.6 km
速度 7.63 km/s
衛星直下点 20.43°N, 116.02°E
打ち上げ日 Feb 11, 2025
運用期間 0.5 years
タイプ internet

技術仕様

分類 Payload
質量 730.00 kg
乾燥質量 700.00 kg
総質量 730.00 kg
長さ 0.30 m
直径 4.10 m
スパン 29.00 m
形状 Box + pan
製造者 SPXS
バスタイプ Starlink V2M
フェーズステータス In Orbit
所有者/国 SPXS/US

大規模コンステレーション

Loading constellations...